EW8360 Weather Reports


Display with metric or nautical units.
time (UTC)temp
F
wind
direction
speed
MPH
gust
MPH
rain 1hr
in
rain 24hr
in
rain mn
in
humidity
%
barometer
mb
20260902093601 66 288 0.0 0.0 0.00 0.00 0.00 88 1014.2
20260902093059 66 288 0.0 1.0 0.00 0.00 0.00 88 1014.2
20260902092601 66 273 0.0 2.0 0.00 0.00 0.00 88 1014.3
20260902092328 66 286 1.0 2.0 0.00 0.00 0.00 87 1014.3
20260902091600 66 327 0.0 0.0 0.00 0.00 0.00 87 1014.3
20260902091100 66 282 0.0 0.0 0.00 0.00 0.00 87 1014.4
20260902090601 66 296 0.0 0.0 0.00 0.00 0.00 88 1014.3
20260902090100 66 283 0.0 0.0 0.00 0.00 0.00 88 1014.5
20260902085559 66 283 0.0 0.0 0.00 0.00 0.00 89 1014.5
20260902085059 66 263 0.0 0.0 0.00 0.00 0.00 88 1014.6
20260902084600 66 264 0.0 0.0 0.00 0.00 0.00 88 1014.6
20260902084100 66 267 0.0 0.0 0.00 0.00 0.00 89 1014.6
20260902083559 66 258 0.0 0.0 0.00 0.00 0.00 88 1014.6
20260902083059 66 241 0.0 0.0 0.00 0.00 0.00 88 1014.7
20260902082100 66 258 0.0 0.0 0.00 0.00 0.00 88 1014.7
20260902081558 66 256 0.0 0.0 0.00 0.00 0.00 88 1014.7
20260902081316 66 258 0.0 0.0 0.00 0.00 0.00 88 1014.6
20260902080600 66 270 0.0 0.0 0.00 0.00 0.00 88 1014.6
20260902080059 66 272 0.0 0.0 0.00 0.00 0.00 88 1014.6
20260902075557 66 250 0.0 0.0 0.00 0.00 0.00 88 1014.6
20260902075058 66 250 0.0 0.0 0.00 0.00 0.00 89 1014.5
20260902074559 66 250 0.0 0.0 0.00 0.00 0.00 88 1014.6
20260902074059 67 263 0.0 0.0 0.00 0.00 0.00 87 1014.6
20260902073819 67 263 0.0 0.0 0.00 0.00 0.00 87 1014.6
20260902073058 67 263 0.0 0.0 0.00 0.00 0.00 87 1014.5
20260902072559 67 259 0.0 1.0 0.00 0.00 0.00 87 1014.5
20260902072059 67 260 0.0 1.0 0.00 0.00 0.00 86 1014.4
20260902071553 67 267 0.0 2.0 0.00 0.00 0.00 86 1014.5
20260902071057 67 274 1.0 3.0 0.00 0.00 0.00 85 1014.3
20260902070559 67 285 2.0 3.0 0.00 0.00 0.00 85 1014.2
20260902070059 67 270 1.0 2.0 0.00 0.00 0.00 86 1014.3
20260902065558 67 265 0.0 2.0 0.00 0.00 0.00 86 1014.3
20260902065057 67 284 2.0 2.0 0.00 0.00 0.00 86 1014.2
20260902064559 67 269 2.0 2.0 0.00 0.00 0.00 85 1014.2
20260902064057 67 251 1.0 3.0 0.00 0.00 0.00 85 1014.2
20260902063823 67 255 1.0 3.0 0.00 0.00 0.00 85 1014.3
20260902063057 67 250 0.0 2.0 0.00 0.00 0.00 86 1014.3
20260902062556 67 250 0.0 3.0 0.00 0.00 0.00 85 1014.3
20260902062058 67 254 2.0 3.0 0.00 0.00 0.00 85 1014.3
20260902061557 67 252 0.0 3.0 0.00 0.00 0.00 86 1014.2
20260902061056 67 255 1.0 3.0 0.00 0.00 0.00 85 1014.1
20260902060557 67 265 1.0 3.0 0.00 0.00 0.00 85 1014.1
20260902060323 67 240 2.0 3.0 0.00 0.00 0.00 86 1014.1
20260902055557 67 253 2.0 3.0 0.00 0.00 0.00 86 1014.0
20260902055056 67 270 2.0 7.0 0.00 0.00 0.00 86 1014.0
20260902054556 67 269 2.0 7.0 0.00 0.00 0.00 85 1014.0
20260902054056 67 289 3.0 7.0 0.00 0.00 0.00 85 1014.0
20260902053557 67 274 2.0 5.0 0.00 0.00 0.00 86 1014.1
20260902053100 67 280 2.0 7.0 0.00 0.00 0.00 86 1014.1
20260902052557 67 296 3.0 7.0 0.00 0.00 0.00 86 1014.1
20260902052059 68 262 0.0 5.0 0.00 0.00 0.00 86 1014.1
20260902051557 68 319 3.0 5.0 0.00 0.00 0.00 86 1014.2
20260902051313 68 306 3.0 5.0 0.00 0.00 0.00 86 1014.2
20260902050555 68 271 1.0 5.0 0.00 0.00 0.00 86 1014.1
20260902045557 68 272 3.0 7.0 0.00 0.00 0.00 86 1014.1
20260902045101 68 274 2.0 7.0 0.00 0.00 0.00 86 1014.0
20260902044556 68 295 4.0 7.0 0.00 0.00 0.00 86 1014.0
20260902044056 68 320 4.0 7.0 0.00 0.00 0.00 87 1014.0
20260902043556 68 305 3.0 8.0 0.00 0.00 0.00 87 1013.9
20260902043054 68 257 3.0 8.0 0.00 0.00 0.00 86 1013.8
20260902042554 68 316 4.0 6.0 0.00 0.00 0.00 87 1013.8
20260902042055 68 313 3.0 7.0 0.00 0.00 0.00 87 1013.7
20260902041556 68 315 3.0 7.0 0.00 0.00 0.00 87 1013.7
20260902041055 68 332 5.0 7.0 0.00 0.00 0.00 87 1013.6
20260902040553 68 283 3.0 6.0 0.00 0.00 0.00 86 1013.4
20260902040055 68 291 3.0 6.0 0.00 0.00 0.00 86 1013.4
20260902035555 68 281 3.0 7.0 0.00 0.00 0.00 86 1013.5
20260902035053 68 355 0.0 9.0 0.00 0.00 0.00 86 1013.3
20260902034553 68 356 7.0 9.0 0.00 0.00 0.00 86 1013.2
20260902034055 68 41 2.0 9.0 0.00 0.00 0.00 86 1013.1
20260902033554 68 342 6.0 8.0 0.00 0.00 0.00 85 1013.1
20260902033053 68 314 5.0 8.0 0.00 0.00 0.00 85 1012.9
20260902032811 68 355 3.0 8.0 0.00 0.00 0.00 85 1012.9
20260902032315 68 270 4.0 7.0 0.00 0.00 0.00 84 1012.8
20260902031825 69 281 6.0 8.0 0.00 0.00 0.00 84 1012.7
20260902031052 69 345 7.0 8.0 0.00 0.00 0.00 83 1012.7
20260902030552 69 350 5.0 13.0 0.00 0.00 0.00 83 1012.7
20260902030052 69 345 7.0 13.0 0.00 0.00 0.00 83 1012.6
20260902025553 69 351 7.0 13.0 0.00 0.00 0.00 82 1012.7
20260902025052 69 347 10.0 13.0 0.00 0.00 0.00 82 1012.6
20260902024551 69 7 11.0 12.0 0.00 0.00 0.00 82 1012.6
20260902024318 69 281 9.0 10.0 0.00 0.00 0.00 82 1012.5
20260902023818 69 341 5.0 8.0 0.00 0.00 0.00 82 1012.4
20260902022551 69 317 4.0 9.0 0.00 0.00 0.00 82 1012.5
20260902022315 69 320 8.0 9.0 0.00 0.00 0.00 83 1012.4
20260902021814 70 280 3.0 9.0 0.00 0.00 0.00 82 1012.5
20260902021051 70 261 3.0 9.0 0.00 0.00 0.00 82 1012.5
20260902020550 70 231 2.0 9.0 0.00 0.00 0.00 82 1012.5
20260902020050 71 319 2.0 8.0 0.00 0.00 0.00 81 1012.6
20260902015551 71 286 3.0 8.0 0.00 0.00 0.00 81 1012.5
20260902015050 71 253 5.0 8.0 0.00 0.00 0.00 80 1012.4
20260902014549 71 329 1.0 8.0 0.00 0.00 0.00 80 1012.4
20260902014050 72 262 2.0 10.0 0.00 0.00 0.00 79 1012.4
20260902013809 72 282 4.0 10.0 0.00 0.00 0.00 79 1012.4
20260902013051 72 291 3.0 8.0 0.00 0.00 0.00 78 1012.4
20260902012549 72 278 3.0 8.0 0.00 0.00 0.00 77 1012.4
20260902012048 72 285 4.0 8.0 0.00 0.00 0.00 76 1012.4
20260902011550 73 316 5.0 7.0 0.00 0.00 0.00 77 1012.4
20260902011051 73 352 4.0 9.0 0.00 0.00 0.00 76 1012.4
20260902010549 73 322 5.0 9.0 0.00 0.00 0.00 77 1012.5
20260902010049 73 314 4.0 8.0 0.00 0.00 0.00 76 1012.5
20260902005550 73 236 3.0 9.0 0.00 0.00 0.00 76 1012.5
20260902005049 73 353 4.0 10.0 0.00 0.00 0.00 76 1012.5
20260902004549 73 266 2.0 10.0 0.00 0.00 0.00 76 1012.5
20260902004049 73 323 5.0 7.0 0.00 0.00 0.00 75 1012.5
20260902003549 73 266 3.0 10.0 0.00 0.00 0.00 75 1012.5
20260902003049 73 237 3.0 10.0 0.00 0.00 0.00 75 1012.5
20260902002549 74 345 3.0 10.0 0.00 0.00 0.00 76 1012.5
20260902002048 74 289 7.0 10.0 0.00 0.00 0.00 75 1012.5
20260902001547 74 289 6.0 9.0 0.00 0.00 0.00 75 1012.5
20260902001048 74 317 4.0 9.0 0.00 0.00 0.00 74 1012.6
20260902000548 74 291 3.0 9.0 0.00 0.00 0.00 75 1012.6
20260902000048 74 277 4.0 9.0 0.00 0.00 0.00 74 1012.5
20260901235808 74 319 4.0 13.0 0.00 0.00 0.00 74 1012.6
20260901235313 74 284 5.0 13.0 0.00 0.00 0.00 76 1012.6
20260901234548 74 277 5.0 12.0 0.00 0.00 0.00 76 1012.5
20260901234047 74 322 5.0 10.0 0.00 0.00 0.00 76 1012.6
20260901233547 74 306 6.0 9.0 0.00 0.00 0.00 75 1012.6
20260901233048 74 272 4.0 14.0 0.00 0.00 0.00 75 1012.6
20260901232548 74 333 4.0 14.0 0.00 0.00 0.00 76 1012.7
20260901232047 74 309 6.0 13.0 0.00 0.00 0.00 75 1012.7
20260901231547 74 303 4.0 12.0 0.00 0.00 0.00 76 1012.7
20260901231048 74 281 4.0 12.0 0.00 0.00 0.00 75 1012.8
20260901230807 74 279 5.0 12.0 0.00 0.00 0.00 75 1012.7
20260901230048 74 291 4.0 12.0 0.00 0.00 0.00 76 1012.8
20260901225048 74 294 6.0 13.0 0.00 0.00 0.00 76 1012.9
20260901224547 74 348 7.0 12.0 0.00 0.00 0.00 75 1012.9
20260901224046 74 283 5.0 14.0 0.00 0.00 0.00 76 1013.0
20260901223547 74 311 3.0 14.0 0.00 0.00 0.00 76 1012.9
20260901223050 74 300 5.0 12.0 0.00 0.00 0.00 75 1012.9
20260901222554 74 265 4.0 12.0 0.00 0.00 0.00 75 1012.9
20260901222045 75 255 5.0 10.0 0.00 0.00 0.00 75 1012.9
20260901221545 75 265 5.0 13.0 0.00 0.00 0.00 75 1013.0
20260901221043 75 242 9.0 14.0 0.00 0.00 0.00 75 1012.9
20260901220811 75 285 3.0 14.0 0.00 0.00 0.00 76 1013.0
20260901220044 75 318 8.0 14.0 0.00 0.00 0.00 75 1012.9
20260901215544 75 232 3.0 12.0 0.00 0.00 0.00 74 1012.9
20260901215043 75 13 7.0 13.0 0.00 0.00 0.00 74 1013.1
20260901214546 74 310 6.0 13.0 0.00 0.00 0.00 76 1013.1
20260901214044 74 274 8.0 16.0 0.00 0.00 0.00 75 1013.1
20260901213803 74 295 5.0 16.0 0.00 0.00 0.00 75 1013.1
20260901213043 74 255 4.0 15.0 0.00 0.00 0.00 75 1013.2
20260901212543 74 266 5.0 16.0 0.00 0.00 0.00 75 1013.2
20260901212308 74 310 5.0 16.0 0.00 0.00 0.00 76 1013.2
20260901211543 75 26 7.0 14.0 0.00 0.00 0.00 76 1013.1
20260901211043 75 4 6.0 14.0 0.00 0.00 0.00 77 1013.1
20260901210545 75 337 7.0 13.0 0.00 0.00 0.00 74 1013.2
20260901210044 75 256 7.0 12.0 0.00 0.00 0.00 76 1013.3
20260901205803 75 270 6.0 12.0 0.00 0.00 0.00 76 1013.3
20260901205310 75 235 7.0 12.0 0.00 0.00 0.00 75 1013.3
20260901204547 75 311 7.0 14.0 0.00 0.00 0.00 75 1013.3
20260901204044 75 291 2.0 15.0 0.00 0.00 0.00 75 1013.2
20260901203542 75 313 9.0 15.0 0.00 0.00 0.00 74 1013.3
20260901203043 75 359 3.0 16.0 0.00 0.00 0.00 73 1013.3
20260901202544 75 285 10.0 16.0 0.00 0.00 0.00 73 1013.3
20260901202043 75 295 5.0 12.0 0.00 0.00 0.00 75 1013.3
20260901201542 75 322 4.0 13.0 0.00 0.00 0.00 73 1013.4
20260901201042 75 340 8.0 15.0 0.00 0.00 0.00 73 1013.3
20260901200543 75 359 4.0 15.0 0.00 0.00 0.00 73 1013.5
20260901200346 76 338 6.0 13.0 0.00 0.00 0.00 74 1013.5
20260901195542 76 338 4.0 13.0 0.00 0.00 0.00 72 1013.5
20260901195041 76 261 5.0 15.0 0.00 0.00 0.00 72 1013.5
20260901194543 76 353 6.0 15.0 0.00 0.00 0.00 72 1013.5
20260901194041 76 300 6.0 9.0 0.00 0.00 0.00 73 1013.6
20260901141418 67 329 0.0 0.0 0.00 0.00 0.00 87 1013.1
20260901141141 67 308 0.0 0.0 0.00 0.00 0.00 88 1013.1
20260901140416 67 297 0.0 0.0 0.00 0.00 0.00 88 1013.0
20260901135915 67 277 0.0 0.0 0.00 0.00 0.00 89 1013.0
20260901135417 67 276 0.0 0.0 0.00 0.00 0.00 89 1013.0
20260901134916 67 327 0.0 0.0 0.00 0.00 0.00 89 1013.0
20260901134415 66 272 0.0 0.0 0.00 0.00 0.00 89 1013.0
20260901133916 66 281 0.0 0.0 0.00 0.00 0.00 89 1012.9
20260901133415 66 254 0.0 0.0 0.00 0.00 0.00 89 1012.8
20260901132917 66 234 0.0 0.0 0.00 0.00 0.00 89 1012.8
20260901131416 66 284 0.0 0.0 0.00 0.00 0.00 90 1012.7
20260901130415 67 249 0.0 0.0 0.00 0.00 0.00 90 1012.7
20260901125914 67 252 0.0 0.0 0.00 0.00 0.00 90 1012.7
20260901125416 67 253 0.0 0.0 0.00 0.00 0.00 90 1012.6
20260901124915 67 253 0.0 0.0 0.00 0.00 0.00 90 1012.6
20260901124635 67 244 0.0 0.0 0.00 0.00 0.00 90 1012.6
20260901123914 67 266 0.0 0.0 0.00 0.00 0.00 89 1012.5
20260901123415 67 323 0.0 0.0 0.00 0.00 0.00 89 1012.6
20260901122915 67 307 0.0 0.0 0.00 0.00 0.00 90 1012.6
20260901122414 67 268 0.0 2.0 0.00 0.00 0.00 89 1012.6
20260901121914 67 262 0.0 3.0 0.00 0.00 0.00 89 1012.6
20260901121642 67 205 2.0 5.0 0.00 0.00 0.00 89 1012.6
20260901120916 67 207 3.0 5.0 0.00 0.00 0.00 90 1012.6
20260901120414 67 189 3.0 3.0 0.00 0.00 0.00 91 1012.6
20260901115913 67 214 0.0 0.0 0.00 0.00 0.00 91 1012.5
20260901115415 67 206 0.0 0.0 0.00 0.00 0.00 91 1012.5
20260901114915 66 241 0.0 1.0 0.00 0.00 0.00 90 1012.4
20260901114634 66 251 0.0 2.0 0.00 0.00 0.00 90 1012.4
20260901114139 66 292 0.0 2.0 0.00 0.00 0.00 90 1012.3
20260901113638 67 324 1.0 2.0 0.00 0.00 0.00 90 1012.3
20260901112914 67 323 0.0 0.0 0.00 0.00 0.00 90 1012.4
20260901112414 67 290 0.0 0.0 0.00 0.00 0.00 90 1012.4
20260901111912 67 268 0.0 0.0 0.00 0.00 0.00 90 1012.4
20260901111636 67 301 0.0 1.0 0.00 0.00 0.00 90 1012.5
20260901110913 67 280 0.0 2.0 0.00 0.00 0.00 90 1012.5
20260901110413 67 273 0.0 2.0 0.00 0.00 0.00 90 1012.4
20260901105912 67 28 2.0 2.0 0.00 0.00 0.00 90 1012.4
20260901105632 67 354 0.0 0.0 0.00 0.00 0.00 90 1012.5
20260901104913 67 321 0.0 0.0 0.00 0.00 0.00 90 1012.4
20260901104413 67 306 0.0 0.0 0.00 0.00 0.00 91 1012.5
20260901103912 67 318 0.0 0.0 0.00 0.00 0.00 91 1012.5
20260901103634 67 277 0.0 0.0 0.00 0.00 0.00 91 1012.5
20260901102912 67 266 0.0 0.0 0.00 0.00 0.00 91 1012.6
20260901102635 67 257 0.0 0.0 0.00 0.00 0.00 91 1012.6
20260901101912 67 250 0.0 0.0 0.00 0.00 0.00 90 1012.7
20260901101636 67 245 0.0 0.0 0.00 0.00 0.00 90 1012.7
20260901100912 67 271 0.0 0.0 0.00 0.00 0.00 89 1012.6
20260901100409 68 276 0.0 0.0 0.00 0.00 0.00 89 1012.7
20260901100037 68 278 0.0 2.0 0.00 0.00 0.00 89 1012.7
20260901095536 68 292 0.0 2.0 0.00 0.00 0.00 88 1012.6
20260901095035 68 343 1.0 3.0 0.00 0.00 0.00 88 1012.7
20260901094535 68 20 1.0 3.0 0.00 0.00 0.00 89 1012.7
20260901094036 68 294 2.0 3.0 0.00 0.00 0.00 89 1012.6